Location: Newark
(54.1978°N, 18.3264°E)
Time: 08:38:04
(UTC+00:00)

OTV 5 (USA 277) - Pass Details

Date: 02 September 2019
Orbit: 295 x 339 km, 54.5° (Epoch: 08 September)

Event Time Altitude Azimuth Distance (km) Brightness Sun altitude
Rises 18:32:18 0° 268° (W) 2,007 ? -8.5°
Reaches altitude 10° 18:34:15 10° 269° (W) 1,177 ? -8.8°
Maximum altitude 18:36:51 81° 358° (N) 309 ? -9.1°
Enters shadow 18:39:09 12° 85° (E) 1,053 ? -9.4°
